Location: Crescent
(42.8242°N, 73.7329°W)
Time: 08:13:12
(UTC+00:00)

Vanguard 1 - Pass Details

Date: 22 February 2026
Orbit: 653 x 3818 km, 34.2° (Epoch: 12 March)

Event Time Altitude Azimuth Distance (km) Brightness Sun altitude
Rises 03:43:28 0° 274° (W) 7,318 14.8 -52.5°
Reaches altitude 10° 03:52:37 10° 253° (WSW) 6,733 14.4 -53.4°
Maximum altitude 04:01:14 14° 230° (SW) 6,591 14.1 -54.2°
Enters shadow 04:05:41 13° 218° (SW) 6,670 14.1 -54.6°
Drops below altitude 10° 04:10:04 10° 207° (SSW) 6,840 - -55.0°
Sets 04:19:55 0° 185° (S) 7,500 - -55.7°
